User: anonymous   Login
Location: Caltech
(34.1382°N, 118.1253°W)
Time: 00:41:51
(UTC-08:00)
Language:

Cosmos 2333 Rocket - Orbit

View from above orbital plane
View from above orbital plane
View from above satellite
View from above satellite

Ground track
Ground track

The orbit data is extracted from the following two-line orbital elements,

1 24298U 96051B   14326.16293894 -.00000130  00000-0 -43968-4 0  6047
2 24298 070.8592 239.2687 0014344 144.8072 015.6956 14.12454483939376
Epoch (UTC): 22 November 2014 03:54:37
Eccentricity: 0.0014344
inclination: 70.8592°
perigee height: 840 km
apogee height: 861 km
right ascension of ascending node: 239.2687°
argument of perigee: 144.8072°
revolutions per day: 14.12454483
mean anomaly at epoch: 15.6956°
orbit number at epoch: 93937

The dashed part of the orbit path shows where the satellite is in the earth's shadow,  

DLR